PulseSat

PulseSat

GSAT0221 (GALILEO 25)

Last updated on Dec. 10, 2018, 12:08 a.m. UTC

1 43564U 18060A   18342.50452183 -.00000079  00000-0  00000-0 0  9990
2 43564  56.4226  56.3647 0005169 258.3483 101.6327  1.70476543  2328
UTC
Height (km)
Latitude
Longitude
Inclination
Orbital Period

Next 30 passes for location: Hong Kong

Rise time Rise Azimuth (degrees) Set time Set Azimuth (degrees) Duration Max altitude (degrees)

No matching passes for this satellites

PulseSat

PulseSat is the new satellites software and hardware trackering solution by Pulsely.
Satellite Two Line Element Set source: US Air Force Space Command

Download PulseSat for iOS
© 2017 Pulsely Limited